Location: McMath-Hulbert Observatory
(42.6964°N, 83.3187°W)
Time: 20:52:18
(UTC-05:00)

ISS - Visible Passes

Search period start: 24 February 2018 00:00
Search period end: 06 March 2018 00:00
Orbit: 402 x 407 km, 51.6° (Epoch: 25 February)

Date Brightness Start Highest point End Pass type
(mag) Time Alt. Az. Time Alt. Az. Time Alt. Az.
24 Feb -0.8 06:42:26 10° S 06:44:33 16° SE 06:46:41 10° E visible
26 Feb -2.3 06:33:15 10° SSW 06:36:18 37° SE 06:39:21 10° ENE visible
27 Feb -1.4 05:41:42 10° S 05:44:11 20° SE 05:46:41 10° E visible
28 Feb -0.8 04:51:50 11° SE 04:52:09 11° SE 04:53:01 10° ESE visible
28 Feb -3.8 06:24:52 10° SW 06:28:08 88° SE 06:31:25 10° ENE visible
01 Mar -3.0 05:34:47 31° SSW 05:35:53 46° SE 05:39:03 10° ENE visible
02 Mar -1.3 04:44:53 20° ESE 04:44:53 20° ESE 04:46:28 10° E visible
02 Mar -3.3 06:17:33 15° W 06:20:03 44° NNW 06:23:14 10° NE visible
03 Mar -4.0 05:27:32 73° WNW 05:27:41 75° NNW 05:30:58 10° NE visible
04 Mar -1.2 04:37:24 21° ENE 04:37:24 21° ENE 04:38:37 10° ENE visible
04 Mar -2.4 06:10:03 15° WNW 06:12:03 27° NNW 06:14:55 10° NE visible
05 Mar -2.9 05:19:50 37° NNW 05:19:50 37° NNW 05:22:40 10° NE visible
